View from above orbital plane
|
View from above satellite
|
Ground track
|
The orbit data is extracted from the following two-line orbital elements,
1 32376U 07059A 21059.78148810 -.00000999 00000-0 -11893-3 0 9990
2 32376 97.8850 245.2175 0001557 88.9521 271.1901 14.82150451715541
Epoch (UTC): | 28 February 2021 18:45:20 |
Eccentricity: | 0.0001557 |
inclination: | 97.8850° |
perigee height: | 621 km |
apogee height: | 623 km |
right ascension of ascending node: | 245.2175° |
argument of perigee: | 88.9521° |
revolutions per day: | 14.82150451 |
mean anomaly at epoch: | 271.1901° |
orbit number at epoch: | 71554 |
The dashed part of the orbit path shows where the satellite is in the earth's shadow,
|
|